THOR ABLESTAR DEB, 2432

Orbit data source: Space-Track

THOR ABLESTAR DEB, 2432 is space debris in LEO originally from a launch on Thu, 05 Dec 1963 UTC launched from the Air Force Western Test Range (AFWTR). Debris objects in space refer to the collection of defunct objects orbiting the Earth. Examples of debris include non-operational satellites, rocket bodies, and fragments generated from explosions, collisions, or faulty payload assembly.

Loading next visibility...
Identifier
2432, 1963-049G
Orbit
LEO
Country
Flag of USUS
Related business
Manufacturer
Unknown
Mission
Spacecraft
Bus & Motor
Unknown
Mass
Unknown
Launch date (UTC)
1963-12-05 (63 years ago)
Launch vehicle
Unknown
Launch site
Air Force Western Test Range (AFWTR)
Object type
Payload
Rocket body
Debris
Shape & HBR
Unknown shape, 0.2 m
Radar Cross Section
Medium (>0.1 m² and <1 m²)

Expand to show TLE details & history
Last TLE update: 2 days ago

TLE from 2 days ago
0 THOR ABLESTAR DEB
1 02432U 63049G   26235.07540444  .00000085  00000-0  12071-3 0  9996
2 02432  89.9173  70.1150 0035745  44.4431  76.9254 13.48267222 81715
Epoch: 2026-08-23T01:48Z
TLE epoch observation values (Epoch: 2026-08-23T01:48:34.943Z)
Latitude
58.32371°
Longitude
-108.5406°
Altitude
1,082.622 km
Speed
7.319 km/s
True Right ascension
16h 39m 55s
True Declination
58° 10' 35"
Sunlit
Object was in daylight at epoch
Visualization orbit readout
Latitude
Unknown
Longitude
Unknown
Altitude
Unknown
Speed
Unknown
Apparent Right ascension
Unknown
Apparent Declination
Unknown
Sunlit
N/A
Visualization observer readout
Local Sidereal Time
10:28:04
Azimuth
Unknown
Elevation
Unknown
Doppler factor
Unknown
Orbital elements
Apogee altitude
1,102.337 km
Perigee altitude
1,049.049 km
Semi-major axis
7,453.83 km
Eccentricity
0.00357
Inclination
89.9173°
RAAN
70.115°
Arg. of periapsis
44.4431°
True anomaly
77.32479°
Mean anomaly
76.9254°
Eccentric anomaly
77.12505°
Mean motion
3.37267 °/min
Orbital period
106.74 mins
BSTAR
0.00012071
Loading maneuver chart data...
Computing Atmospheric mass density...
Loading historical data...
Loading historical data...
Loading historical data...
Loading historical data...
Loading historical data...
Loading historical data...
Loading historical data...

Documentation

Showing up to 5 results
|